Location: Bijele Vode
(45.2833°N, 16.2000°E)
Time: 01:07:12
(UTC+00:00)

Lacrosse 5 rocket - Pass Details

Date: 22 January 2021
Orbit: 465 x 630 km, 57.0° (Epoch: 06 March)

Event Time Altitude Azimuth Distance (km) Brightness Sun altitude
Exits shadow 03:30:28 21° 63° (ENE) 1,200 3.6 -30.6°
Drops below altitude 10° 03:32:12 10° 85° (E) 1,704 4.7 -30.3°
Sets 03:34:32 0° 97° (E) 2,558 5.9 -29.9°
